Location: Unspecified
(0.0000°N, 0.0000°E)
Time: 15:23:15
(UTC+00:00)

deb Midas V - Pass Details

Date: 17 April 2026
Orbit: 2771 x 3389 km, 86.6° (Epoch: 16 May)

Event Time Altitude Azimuth Distance (km) Brightness Sun altitude
Rises 04:41:26 0° 150° (SSE) 6,614 ? -19.2°
Reaches altitude 10° 04:46:27 10° 137° (SE) 5,641 ? -18.0°
Maximum altitude 04:57:50 26° 86° (E) 4,595 ? -15.2°
Drops below altitude 10° 05:09:41 10° 36° (NE) 5,987 ? -12.3°
Sets 05:15:01 0° 25° (NNE) 7,099 ? -11.0°
